Location: Unspecified
(43.1763°N, 79.4719°W)
Time: 12:39:41
(UTC-04:00)

Cosmos 2058 - Visible Passes

Search period start: 19 June 2018 00:00
Search period end: 29 June 2018 00:00
Orbit: 562 x 585 km, 82.5° (Epoch: 18 June)

Date Brightness Start Highest point End Pass type
(mag) Time Alt. Az. Time Alt. Az. Time Alt. Az.
19 Jun 4.2 01:39:04 28° W 01:39:29 29° WNW 01:43:09 10° NNW visible
20 Jun 4.1 00:05:54 29° E 00:05:54 29° E 00:09:24 10° NNE visible
20 Jun 4.6 01:42:06 22° W 01:42:43 23° WNW 01:46:02 10° NNW visible
21 Jun 3.7 00:08:55 38° E 00:08:55 38° E 00:12:45 10° NNE visible
21 Jun 5.0 01:45:07 17° W 01:45:58 18° WNW 01:48:49 10° NNW visible
22 Jun 3.2 00:11:55 50° E 00:12:00 51° E 00:16:02 10° NNE visible
22 Jun 5.3 01:48:07 12° W 01:49:15 14° WNW 01:51:24 10° NW visible
23 Jun 2.8 00:14:55 67° ESE 00:15:08 69° E 00:19:15 10° NNE visible
23 Jun 5.6 01:51:47 10° WNW 01:52:33 10° WNW 01:53:19 10° NW visible
24 Jun 2.7 00:17:53 73° SSW 00:18:16 88° W 00:22:26 10° N visible
25 Jun 3.0 00:20:50 57° SW 00:21:26 66° W 00:25:33 10° N visible
25 Jun 4.9 22:47:35 13° E 22:48:09 13° E 22:50:08 10° NE visible
26 Jun 3.5 00:23:47 42° WSW 00:24:37 49° WNW 00:28:38 10° N visible
26 Jun 4.6 22:50:30 17° E 22:51:11 17° E 22:53:56 10° NE visible
27 Jun 4.1 00:26:42 31° WSW 00:27:48 37° WNW 00:31:39 10° N visible
27 Jun 4.3 22:53:24 21° ESE 22:54:15 23° E 22:57:29 10° NE visible
28 Jun 4.5 00:29:36 23° WSW 00:31:01 28° WNW 00:34:36 10° NNW visible
28 Jun 3.9 22:56:17 26° ESE 22:57:19 29° E 23:00:55 10° NNE visible
